Home   Weather   Amarillo   Past weeks

Flag for USA Past Weather in Amarillo, Texas, USA — Yesterday and Last 2 Weeks

Now
46 °F

Clear.


Feels Like: 44 °F
Forecast: 40 / 56 °F
Wind: 5 mph from Southwest

Location: Amarillo International Airport

Current Time: Jan 19, 2017 at 9:59:33 pm

Latest Report: Jan 19, 2017 at 8:53 pm


Visibility: 10 mi

Pressure: 29.53 "Hg (25.78 "Hg at 1117m altitude)

Humidity: 51%

Dew Point: 29 °F

Location of AmarilloLocation

Past Weather in Amarillo — Graph

°F

Amarillo Temperature Yesterday

Maximum temperature yesterday: 57 °F (at 2:53 pm)
Minimum temperature yesterday: 36 °F (at 4:37 am)
Average temperature yesterday: 44 °F

High & Low Weather Summary for the Past Weeks

 TemperatureHumidityPressure
High77 °F (Jan 9, 1:53 pm)100% (Jan 14, 5:53 am)30.67 "Hg (Jan 14, 5:53 am)
Low0 °F (Jan 7, 3:53 am)13% (Jan 11, 1:53 pm)29.46 "Hg (Jan 19, 3:53 pm)
Average35 °F70%30.09 "Hg
* Reported Jan 4 7:53 pm — Jan 19 7:53 pm, Amarillo, Weather by CustomWeather, © 2017

Note: Actual official high and low records may vary slightly from our data, if they occured in-between our weather recording intervals... More about our weather records

Advertising

Amarillo Weather History for the Previous 24 Hours

Scroll right to see more
 ConditionsComfort  
Time TempWeatherWind HumidityBarometerVisibility
7:53 pm
Thu, Jan 19
41 °FClear.7 mph60%29.54 "Hg10 mi
6:53 pm48 °FClear.8 mph46%29.53 "Hg10 mi
5:53 pm56 °FSunny.5 mph29%29.51 "Hg10 mi
4:53 pm64 °FSunny.8 mph18%29.47 "Hg10 mi
3:53 pm65 °FSunny.6 mph20%29.46 "Hg10 mi
2:53 pm62 °FSunny.8 mph22%29.47 "Hg10 mi
1:53 pm59 °FSunny.16 mph23%29.48 "Hg10 mi
12:53 pm56 °FSunny.15 mph30%29.52 "Hg10 mi
11:53 am52 °FSunny.16 mph35%29.55 "Hg10 mi
10:53 am47 °FSunny.14 mph50%29.59 "Hg10 mi
9:53 am43 °FSunny.13 mph58%29.59 "Hg10 mi
8:53 am38 °FSunny.8 mph73%29.58 "Hg10 mi
7:53 am36 °FSunny.12 mph79%29.58 "Hg10 mi
6:53 am37 °FClear.15 mph79%29.59 "Hg10 mi
5:53 am38 °FClear.15 mph79%29.58 "Hg10 mi
4:53 am39 °FClear.14 mph79%29.59 "Hg10 mi
3:53 am40 °FClear.17 mph80%29.61 "Hg10 mi
2:53 am41 °FClear.18 mph76%29.63 "Hg10 mi
1:53 am40 °FClear.16 mph83%29.67 "Hg10 mi
12:53 am43 °FClear.21 mph74%29.69 "Hg10 mi
11:53 pm
Wed, Jan 18
43 °FClear.18 mph76%29.73 "Hg10 mi
10:53 pm43 °FClear.15 mph76%29.77 "Hg10 mi
9:53 pm42 °FClear.13 mph79%29.82 "Hg10 mi
Weather by CustomWeather, © 2017

See weather overviewHow to use our weather pages